Location: Zagreb
(45.8000°N, 16.0000°E)
Time: 07:41:18
(UTC+02:00)

Courier 1B Rocket - Pass Details

Date: 08 August 2022
Orbit: 920 x 1202 km, 28.2° (Epoch: 25 September)

Event Time Altitude Azimuth Distance (km) Brightness Sun altitude
Rises 19:34:22 0° 229° (SW) 3,622 8.5 5.9°
Reaches altitude 10° 19:38:01 10° 209° (SSW) 2,722 7.5 5.3°
Maximum altitude 19:41:52 16° 173° (S) 2,347 6.8 4.6°
Drops below altitude 10° 19:45:52 10° 137° (SE) 2,839 6.9 4.0°
Sets 19:49:48 0° 117° (ESE) 3,856 7.4 3.3°
